Location: Newark
(7.0858°N, 171.3717°E)
Time: 08:35:44
(UTC+00:00)

S-56A Canister/Altair - Pass Details

Date: 27 November 2020
Orbit: 633 x 2499 km, 38.9° (Epoch: 27 January)

Event Time Altitude Azimuth Distance (km) Brightness Sun altitude
Rises 17:01:40 0° 297° (WNW) 2,906 - -21.3°
Reaches altitude 10° 17:03:57 10° 289° (WNW) 2,020 - -20.8°
Exits shadow 17:07:10 35° 249° (WSW) 1,093 7.9 -20.0°
Maximum altitude 17:08:09 39° 219° (SW) 1,037 8.0 -19.8°
Drops below altitude 10° 17:13:16 10° 150° (SSE) 2,467 10.8 -18.6°
Sets 17:16:21 0° 143° (SE) 3,649 12.0 -17.9°
